"Pseudo-MPEC" for P10Lbzx

Created 2019 Jan 12 22:18:18 UT using Find_Orb

Click here for an explanation of pseudo-MPECs

 
 Astrometry: 
     P10Lbzx  C2019 01 08RY:Ata\!c:aYvj;[ik.wE=]!vAstrometryNGB`jn?^imKoc?0vkF51
     P10Lbzx  C2019 01 08WW]-+^*!EtJdY9XY?'B8kr.Ec`hyb[W@%H[!C+fVxxi=%e0J]oF$F51
     P10Lbzx  C2019 01 08?R.yUVZVS?vc=tR5S=E#credacted;Lh/F/46(gD[vTo,b4)KRW$F51
     P10Lbzx  C2019 01 08OoPqXPrA?.$,,_(`/4HCqNOORpnM66#@_T7^c9#K=cWWkrftcQHmF51
     P10Lbzx |C2019 01 09e_@$m1B,O6cSM2d^*xXnP'a05click$_qX$1R(X%dm;NGH!33sq=807
     P10Lbzx KC2019 01 092F_qr=O)pXah]5xT\F/J3(A+Kp\wi]\:USj8#HSk_Y7g=7PgKY.VW87
     P10Lbzx |C2019 01 09YSmsbGcTJebp$uvocm-mZ2LCB`#HPMc[s\wtRE?:oD5kmR_Fs2L.807
     P10Lbzx KC2019 01 09Y(0Y_p1*5%S3oD'G][G1HtMV`G3WHJhere6*5,ctOXlTeYI/`KGBW87
     P10Lbzx KC2019 01 09a`4r.8bl'IVUK+gq9RQc7h=3:OW;4XVuF(]^jP@9,u?k=6*ogGeYW87
     P10Lbzx |C2019 01 09yl6UA\7Xt'.:unjn_-*DVLEB_5J+s\cforr(y'I['VyjJt^:hx!M807
     P10Lbzx ^C2019 01 09.51738 10 22 23.746+03 51 01.50   ~19JI 21.87GVNEOCP568
     P10Lbzx ^C2019 01 09.51834 10 22 23.747+03 51 03.70   ~19JI 21.90GVNEOCP568
     P10Lbzx ^C2019 01 09.51931 10 22 23.746+03 51 05.99   ~19JI 21.96GVNEOCP568
     P10Lbzx KC2019 01 120$C):aUB`\EvT',TqV(/KKaLx]^+Y8CCq@'e'\.BsSMZJ[+d;+5X291
     P10Lbzx KC2019 01 12;p45Qy=ha_a;#hO'J[-hv9#RKjlub?8WjLlAc/gJ(YmX`qmH_i;b291
     P10Lbzx KC2019 01 12aT%QZqM`explanation5\(7a0qTBWK5%0XtLT:XBV)d+5DVb_kxg291

Station data:
(291) LPL/Spacewatch II  (N31.961669 W111.599905)  US/Arizona.  Observers J.
   V. Scotti, R. S. McMillan. 1.8-m f/2.7 reflector + CCD.
(568) Mauna Kea  (N19.826116 W155.472200)  US/Hawaii.
(807) Cerro Tololo Observatory, La Serena  (S30.169136 W70.805900)  Chile.
   1.5-m Ritchey-Chrétien.
(F51) Pan-STARRS 1, Haleakala  (N20.707235 W156.255910)  US/Hawaii.
   Observers N. Primak, A. Schultz, S. Watters, J. Thiel, T. Goggia. Measurer
   PS1 Science Consortium. 1.8-m Ritchey-Chrétien + CCD.
(W87) Cerro Tololo-LCO C  (S30.167456 W70.804680)  Chile.

Orbital elements:  P10Lbzx
   Perihelion 2019 Oct 29.019603 +/- 3.09 TT =  0:28:13 (JD 2458785.519603)
Epoch 2019 Jan 12.0 TT = JDT 2458495.5   Earth MOID: 0.2860   Ma: 0.0880
M 189.82696245 +/- 2.3              (J2000 ecliptic)          AutoNEOCP
n   0.58676391 +/- 0.00403          Peri.  168.52878 +/- 2.0
a   1.41305950 +/- 0.00647          Node   131.13776 +/- 0.055
e   0.0807703 +/- 0.0023            Incl.   37.14627 +/- 0.28
P   1.68/613.52d           H 21.0   G  0.15   U  9.0  
q 1.29892622 +/- 0.009    Q 1.52719278 +/- 0.00442
From 16 observations 2019 Jan. 8-12; mean residual 0".17
Residuals in arcseconds: 
190108 F51  .07+  .11-    190109 807  .39-  .01-    190109 568  .03+  .05-    
190108 F51  .05+  .15-    190109 W87  .05+  .10-    190112 291  .12+  .18-    
190108 F51  .15-  .12+    190109 W87  .07+  .03+    190112 291  .10+  .40-    
190108 F51  .12+  .08+    190109 807  .05+  .15+    190112 291  .21-  .58+    
190109 807  .06-  .18+    190109 568  .03+  .05-    
190109 W87  .08+  .02-    190109 568  .04+  .08-    

Ephemerides (geocentric):
Date (UTC) HH   RA              Dec         delta   r     elong  mag " sig PA
---- -- -- --  -------------   -----------  ------ ------ -----  --- ---- ---
2019 01 12 22  10 22 22.962   +06 10 48.75  .65156 1.5256 136.9 22.2 .202 111
2019 01 12 23  10 22 22.740   +06 12 37.39  .65124 1.5256 136.9 22.2 .218 110
2019 01 13 00  10 22 22.513   +06 14 26.18  .65092 1.5256 137.0 22.2 .234 110
2019 01 13 01  10 22 22.281   +06 16 15.11  .65060 1.5256 137.1 22.2 .250 109
2019 01 13 02  10 22 22.043   +06 18 04.18  .65027 1.5256 137.1 22.2 .267 109
2019 01 13 03  10 22 21.800   +06 19 53.39  .64995 1.5256 137.2 22.2 .283 108
2019 01 13 04  10 22 21.551   +06 21 42.75  .64963 1.5256 137.2 22.2 .301 108
2019 01 13 05  10 22 21.297   +06 23 32.25  .64931 1.5255 137.3 22.2 .318 108
2019 01 13 06  10 22 21.038   +06 25 21.90  .64899 1.5255 137.3 22.2 .336 107
2019 01 13 07  10 22 20.774   +06 27 11.68  .64867 1.5255 137.4 22.2 .354 107
2019 01 13 08  10 22 20.504   +06 29 01.62  .64836 1.5255 137.5 22.2 .372 107
2019 01 13 09  10 22 20.229   +06 30 51.69  .64804 1.5255 137.5 22.2 .391 107
2019 01 13 10  10 22 19.948   +06 32 41.91  .64772 1.5255 137.6 22.2 .410 106
2019 01 13 11  10 22 19.662   +06 34 32.27  .64740 1.5255 137.6 22.2 .429 106
2019 01 13 12  10 22 19.371   +06 36 22.78  .64708 1.5255 137.7 22.2 .449 106
2019 01 13 13  10 22 19.074   +06 38 13.43  .64677 1.5255 137.7 22.2 .469 106
2019 01 13 14  10 22 18.772   +06 40 04.22  .64645 1.5255 137.8 22.2 .489 106
2019 01 13 15  10 22 18.465   +06 41 55.15  .64614 1.5255 137.8 22.1 .509 105
2019 01 13 16  10 22 18.152   +06 43 46.23  .64582 1.5255 137.9 22.1 .530 105
2019 01 13 17  10 22 17.834   +06 45 37.45  .64550 1.5255 138.0 22.1 .551 105
2019 01 13 18  10 22 17.510   +06 47 28.82  .64519 1.5254 138.0 22.1 .572 105
2019 01 13 19  10 22 17.181   +06 49 20.33  .64487 1.5254 138.1 22.1 .594 105
2019 01 13 20  10 22 16.847   +06 51 11.98  .64456 1.5254 138.1 22.1 .616 105
2019 01 13 21  10 22 16.507   +06 53 03.78  .64425 1.5254 138.2 22.1 .638 105
2019 01 13 22  10 22 16.162   +06 54 55.72  .64393 1.5254 138.2 22.1 .661 104
2019 01 13 23  10 22 15.811   +06 56 47.80  .64362 1.5254 138.3 22.1 .684 104
2019 01 14 00  10 22 15.456   +06 58 40.03  .64331 1.5254 138.4 22.1 .707 104
2019 01 14 01  10 22 15.094   +07 00 32.40  .64300 1.5254 138.4 22.1 .730 104
2019 01 14 02  10 22 14.727   +07 02 24.91  .64268 1.5254 138.5 22.1 .754 104
2019 01 14 03  10 22 14.355   +07 04 17.57  .64237 1.5254 138.5 22.1 .778 104
2019 01 14 04  10 22 13.978   +07 06 10.37  .64206 1.5254 138.6 22.1 .802 104
2019 01 14 05  10 22 13.595   +07 08 03.31  .64175 1.5254 138.6 22.1 .827 104
2019 01 14 06  10 22 13.206   +07 09 56.40  .64144 1.5253 138.7 22.1 .852 103
2019 01 14 07  10 22 12.812   +07 11 49.63  .64113 1.5253 138.8 22.1 .877 103
2019 01 14 08  10 22 12.413   +07 13 43.00  .64082 1.5253 138.8 22.1 .902 103
2019 01 14 09  10 22 12.008   +07 15 36.52  .64051 1.5253 138.9 22.1 .928 103
2019 01 14 10  10 22 11.598   +07 17 30.18  .64020 1.5253 138.9 22.1 .954 103
2019 01 14 11  10 22 11.182   +07 19 23.98  .63989 1.5253 139.0 22.1 .980 103
2019 01 14 12  10 22 10.761   +07 21 17.93  .63959 1.5253 139.0 22.1 1.01 103
2019 01 14 13  10 22 10.334   +07 23 12.02  .63928 1.5253 139.1 22.1 1.03 103
2019 01 14 14  10 22 09.902   +07 25 06.25  .63897 1.5253 139.2 22.1 1.06 103
2019 01 14 15  10 22 09.465   +07 27 00.63  .63867 1.5253 139.2 22.1 1.09 103
2019 01 14 16  10 22 09.022   +07 28 55.15  .63836 1.5253 139.3 22.1 1.12 103
2019 01 14 17  10 22 08.573   +07 30 49.82  .63805 1.5253 139.3 22.1 1.14 103
2019 01 14 18  10 22 08.119   +07 32 44.62  .63775 1.5252 139.4 22.1 1.17 102
2019 01 14 19  10 22 07.660   +07 34 39.57  .63744 1.5252 139.4 22.1 1.20 102
2019 01 14 20  10 22 07.195   +07 36 34.67  .63714 1.5252 139.5 22.1 1.23 102
2019 01 14 21  10 22 06.725   +07 38 29.90  .63683 1.5252 139.6 22.1 1.26 102